This is the latest recevied weather packets stored in our database for station/object N6RDS. If no packets are shown the sender has not sent any weather packets the latest 10 day(s).
| Time | Temp. | Humidity | Pressure | Rain* | Wind** | Luminosity | Snow |
|---|---|---|---|---|---|---|---|
| 1777538661 | 1.11° C | 51% | 1024 hPa | 0 mm | - | 0 W/m² | - |
| 1777538356 | 1.67° C | 50% | 1024.5 hPa | 0 mm | - | 0 W/m² | - |
| 1777538052 | 1.67° C | 49% | 1024.3 hPa | 0 mm | - | 0 W/m² | - |
| 1777537748 | 1.67° C | 50% | 1024.4 hPa | 0 mm | - | 0 W/m² | - |
| 1777537444 | 1.67° C | 49% | 1024.5 hPa | 0 mm | - | 0 W/m² | - |
| 1777537140 | 2.22° C | 49% | 1024.8 hPa | 0 mm | - | 0 W/m² | - |
| 1777536836 | 2.22° C | 46% | 1024.8 hPa | 0 mm | - | 0 W/m² | - |
| 1777536534 | 2.78° C | 47% | 1024.8 hPa | 0 mm | - | 0 W/m² | - |
| 1777536224 | 2.78° C | 46% | 1025.3 hPa | 0 mm | - | 0 W/m² | - |
| 1777535920 | 2.78° C | 47% | 1025.4 hPa | 0 mm | - | 0 W/m² | - |
| 1777535617 | 2.22° C | 48% | 1025.4 hPa | 0 mm | - | 0 W/m² | - |
| 1777535314 | 2.78° C | 47% | 1025.4 hPa | 0 mm | - | 0 W/m² | - |
| 1777535011 | 2.78° C | 46% | 1025.5 hPa | 0 mm | - | 0 W/m² | - |
| 1777534707 | 3.33° C | 44% | 1025.5 hPa | 0 mm | - | 0 W/m² | - |
| 1777534404 | 3.89° C | 44% | 1025.5 hPa | 0 mm | - | 0 W/m² | - |
| 1777534103 | 3.89° C | 43% | 1025.6 hPa | 0 mm | - | 0 W/m² | - |
| 1777533799 | 3.89° C | 43% | 1025.3 hPa | 0 mm | - | 0 W/m² | - |
| 1777533496 | 3.89° C | 43% | 1025.3 hPa | 0 mm | - | 0 W/m² | - |
| 1777533191 | 3.89° C | 44% | 1025.2 hPa | 0 mm | - | 0 W/m² | - |
| 1777532889 | 4.44° C | 43% | 1025.2 hPa | 0 mm | - | 0 W/m² | - |
| 1777532586 | 3.89° C | 43% | 1025.4 hPa | 0 mm | - | 0 W/m² | - |
| 1777532282 | 4.44° C | 43% | 1025.4 hPa | 0 mm | - | 0 W/m² | - |
| 1777531978 | 4.44° C | 41% | 1025.3 hPa | 0 mm | - | 0 W/m² | - |
| 1777531675 | 4.44° C | 42% | 1025.3 hPa | 0 mm | - | 0 W/m² | - |
| 1777531371 | 5° C | 41% | 1025.3 hPa | 0 mm | - | 0 W/m² | - |
* Rain latest hour (hover to see other rain measurements)
** Current wind speed in m/s (hover to see current wind gust speed)